This demonstration page uses our WeatherBlox Daily Observations layout. Learn more.

41.55636, -103.73856

Hourly Observations for September 24, 2017

Temp ( °F °C ) Dew Point ( °F °C ) Humidity (%) Winds ( mph kmh ) Pressure ( in mb ) Visibility ( mi km ) Precip ( " mm )
12:15 am 00:15 Cloudy with Light Rain 46 7.8 43 6.1 89 89 Calm 29.94 1014 9 14.48406 0.03 0.762
12:53 am 00:53 Cloudy with Light Rain 46 7.8 43 6.1 89 89 S 3 6 29.94 1014 10 16.0934 0.06 1.524
1:31 am 01:31 Cloudy with Light Rain 46 7.8 43 6.1 89 89 WNW 6 9 29.94 1014 10 16.0934 0 0.0254
1:46 am 01:46 Cloudy with Light Rain 46 7.8 43 6.1 89 89 WNW 8 13 29.94 1014 10 16.0934 0 0.0254
1:53 am 01:53 Cloudy 46 7.8 43 6.1 89 89 WNW 8 13 29.97 1015 10 16.0934 0 0.0254
2:08 am 02:08 Cloudy 46 8 43 6 87 87 WNW 7 11 29.94 1014 10 16.0934 0 0
2:36 am 02:36 Cloudy 46 8 45 7 93 93 NW 7 11 29.94 1014 10 16.0934 0 0
2:53 am 02:53 Cloudy 46 7.8 43 6.1 89 89 NW 8 13 29.95 1014 10 16.0934 0 0
3:13 am 03:13 Cloudy 46 7.8 43 6.1 89 89 NW 9 15 29.94 1014 10 16.0934 0 0
3:53 am 03:53 Cloudy 46 7.8 43 6.1 89 89 NW 7 11 29.95 1014 10 16.0934 0 0
4:18 am 04:18 Cloudy 46 8 43 6 87 87 N 5 7 29.97 1015 10 16.0934 0 0
4:53 am 04:53 Cloudy 46 7.8 42 5.6 86 86 undefined N/A 29.98 1015 10 16.0934 0 0
5:11 am 05:11 Cloudy 47 8.3 43 6.1 86 86 Calm 29.97 1015 10 16.0934 0 0
5:43 am 05:43 Cloudy 46 7.8 43 6.1 89 89 NNW 3 6 29.97 1015 10 16.0934 0 0
5:53 am 05:53 Cloudy 46 7.8 42 5.6 86 86 N 6 9 29.98 1015 10 16.0934 0 0
6:53 am 06:53 Cloudy 46 7.8 42 5.6 86 86 Calm 30 1016 10 16.0934 0 0
7:53 am 07:53 Cloudy 47 8.3 42 5.6 83 83 N 8 13 29.98 1015 10 16.0934 0 0
8:18 am 08:18 Cloudy 48 9 43 6 82 82 N 6 9 29.97 1015 10 16.0934 0 0
8:53 am 08:53 Cloudy 48 8.9 42 5.6 80 80 NNE 5 7 30.01 1016 10 16.0934 0 0
9:53 am 09:53 Cloudy with Light Rain 48 8.9 43 6.1 83 83 NNW 5 7 30.02 1017 7 11.26538 0 0.0254
10:53 am 10:53 Cloudy 49 9.4 43 6.1 80 80 NNE 5 7 30.02 1017 9 14.48406 0 0.0254
11:53 am 11:53 Cloudy 52 11.1 43 6.1 72 72 NNE 8 13 30.01 1016 10 16.0934 0.01 0.254
12:11 pm 12:11 Cloudy 52 11.1 43 6.1 72 72 ENE 9 15 29.97 1015 10 16.0934 0 0
12:36 pm 12:36 Cloudy 52 11 43 6 72 72 NNE 9 15 29.97 1015 10 16.0934 0 0
12:53 pm 12:53 Cloudy 53 11.7 43 6.1 69 69 NNE 9 15 29.99 1016 10 16.0934 0 0
1:53 pm 13:53 Cloudy 54 12.2 41 5 62 62 ENE 9 15 29.98 1015 10 16.0934 0 0
2:13 pm 14:13 Cloudy 54 12.2 42 5.6 64 64 NE 10 17 29.94 1014 10 16.0934 0 0
2:35 pm 14:35 Cloudy 54 12.2 43 6.1 67 67 ENE 13 20 29.94 1014 10 16.0934 0 0
2:53 pm 14:53 Cloudy 54 12.2 42 5.6 64 64 ENE 13 20 29.99 1016 10 16.0934 0 0
3:53 pm 15:53 Cloudy 53 11.7 43 6.1 69 69 ENE 13 20 29.99 1016 10 16.0934 0 0
4:53 pm 16:53 Cloudy 52 11.1 43 6.1 72 72 ENE 14 22 29.99 1016 10 16.0934 0 0
5:53 pm 17:53 Cloudy 52 11.1 44 6.7 75 75 ENE 10 17 30 1016 10 16.0934 0 0
6:53 pm 18:53 Cloudy 50 10 43 6.1 77 77 NE 10 17 30.02 1017 10 16.0934 0 0
7:53 pm 19:53 Cloudy 49 9.4 45 7.2 86 86 ENE 9 15 30.03 1017 10 16.0934 0.01 0.254
8:53 pm 20:53 Cloudy 48 8.9 44 6.7 86 86 ENE 15 24 30.04 1017 10 16.0934 0 0
9:53 pm 21:53 Cloudy with Mist and Fog 47 8.3 44 6.7 90 90 ENE 14 22 30.05 1018 5 8.0467 0 0
10:53 pm 22:53 Cloudy 47 8.3 43 6.1 86 86 ENE 15 24 30.04 1017 10 16.0934 0 0.0254
11:46 pm 23:46 Cloudy 47 8.3 43 6.1 86 86 E 5 7 30.09 1019 10 16.0934 0 0.0254
11:53 pm 23:53 Cloudy 47 8.3 43 6.1 86 86 ENE 6 9 30.05 1018 10 16.0934 0 0.0254

Powered by AerisWeather